Погода в Дубках

Россия / Республика Дагестан     43°01′15″N   46°50′14″E
темп.,
°C
ветер,
м/с
пор.,
м/с
влажн.,
%
обл.,
%
осадки,
мм/ч
давл.,
гПа
погр.,
м
4 марта, чт
чт400:00−4з6128051 0.6 1024769
03:00−4з5118029 0.6 1025668
06:00−4з49772 0.0 1027460
09:00−1з35621 0.0 1027638
12:00+2св12580 0.0 1026736
15:00+2всв22590 0.0 1025732
18:00−2вюв11831 0.0 102527
21:00−2ююз12700 0.0 102521
5 марта, пт
пт500:00−2юз11650 0.0 102421
03:00−2юз11600 0.0 102221
06:00−2ююз11570 0.0 102121
09:00+2всв11500 0.0 1020211
12:00+4ссв21550 0.0 1019459
15:00+5св11580 0.0 1017391
18:00+2ююз12710 0.0 101922
21:00+2ююз22500 0.0 102122
6 марта, сб
сб600:00+2ююз22370 0.0 102022
03:00+2юз22330 0.0 102022
06:00+2юз22290 0.0 102022
09:00+7ююв12310 0.0 101896
12:00+10в23267 0.0 1016569
15:00+10в233344 0.0 1014553
18:00+5ю224633 0.0 101524
21:00+5юз334057 0.0 101426
7 марта, вс
вс700:00+5зюз2247100 0.0 101323
03:00+4з5852100 0.0 1013275
06:000зсз5888100 0.1 1017466
09:00−3зсз61091100 3.6 1020737
12:00−2сз799098 1.2 1021920
15:00−2сз688399 2.6 1021945
18:00−4зсз358496 0.3 1023292
21:00−5зюз127954 0.3 102437
8 марта, пн
пн800:00−5юв118520 0.0 102371
03:00−5юв118521 0.0 102351
06:00−6юв11840 0.0 102337
09:00−3в22744 0.0 1022405
12:00−1в337777 0.0 1019621
15:00−1всв228187 0.1 1017481
18:00−2с119698 0.3 1018151
21:00−3юз118987 0.3 101933